Helios 1A

operational
NORAD ID: 23605 Int'l Des: 1995-033 Owner: CNES/DGA Country: F
LEOCIRCULARRETROGRADE

About Helios 1A

Description loading...

Live Position

Loading 3D Globe...

Upcoming Passes

Altitude History

Altitude vs Time

uPlot chart will show altitude changes over time

Two-Line Element Set

1 23605U 95033A 26102.73926605 .00001590 00000-0 11556-3 0 9991
2 23605 98.2052 348.9562 0010557 248.6228 111.3871 15.05447338658316
Epoch: Apr 12, 2026 • Age: 11 hours

Current Status

Altitude 569.0 km
Velocity 7.58 km/s
Sub-Earth Point -70.10°S, 121.72°W
Launch Date Jul 7, 1995
Age 30.7 years
Type other

Technical Details

Classification Payload
Mass 2537.00 kg
Dry Mass 2500.00 kg
Total Mass 2537.00 kg
Length 3.50 m
Diameter 2.00 m
Span 4.00 m
Shape Box + Pan
Manufacturer MMST
Bus Type SPOT
Phase Status In Orbit
Owner/State CNES/DGA/F

Large Constellations

Loading constellations...